Regional Weather Roundup
Issued by NWS

Home | Current Version | Previous Version | Graphics & Text | Print | Product List | Glossary On
Versions: 1 2 3 4 5 6 7 8 9 10 11 12 13 14 15 16 17 18 19 20 21 22 23 24 25 26 27 28 29 30 31 32 33 34 35 36 37 38 39 40 41 42 43 44 45 46 47 48 49 50
000
ASUS43 KMKX 180221
RWRWI

WISCONSIN REGIONAL WEATHER ROUNDUP
NATIONAL WEATHER SERVICE MILWAUKEE/SULLIVAN WI
900 PM CDT TUE OCT 17 2017

NOTE: "FAIR" INDICATES FEW OR NO CLOUDS BELOW 12,000 FEET WITH NO
SIGNIFICANT WEATHER AND/OR OBSTRUCTIONS TO VISIBILITY.

WIZ001-002-006>008-014>016-023>028-180300-
NORTHWEST WISCONSIN

CITY           SKY/WX    TMP DP  RH WIND       PRES   REMARKS
SUPERIOR ARPT  CLEAR     54  41  62 S6        29.85F
ASHLAND        CLEAR     52  42  69 S6        29.89F
HAYWARD        CLEAR     46  41  82 S3        29.92F
SIREN          CLEAR     56  42  61 S7        29.90F
CUMBERLAND     CLEAR     48  39  71 S3        29.93F
RICE LAKE      CLEAR     50  44  79 CALM      29.95S
CHETEK         CLEAR     51  46  82 CALM      29.94F
LADYSMITH      CLEAR     57  44  62 S6        29.97F
EAU CLAIRE     CLEAR     59  46  62 S10       29.95F
MENOMONIE      CLEAR     54  45  72 SE3       29.94F
NEW RICHMOND   CLEAR     54  40  60 S6        29.93S
OSCEOLA        CLEAR     51  43  76 SE3       29.94S
$$

WIZ003>005-009-010-017-018-180300-
NORTH CENTRAL WISCONSIN

CITY           SKY/WX    TMP DP  RH WIND       PRES   REMARKS
MANITOWISH WTR CLEAR     51  44  77 S6        29.95F
ARBOR VITAE    CLEAR     57  46  68 S6        29.96S
WOODRUFF       CLEAR     57  46  68 S6        29.96S
RHINELANDER    CLEAR     55  45  68 S6        29.99S
EAGLE RIVER    CLEAR     53  41  64 S3        29.97S
LAND O LAKES   CLEAR     46  41  82 CALM      29.98F
PHILLIPS       CLEAR     55  44  66 S7        29.96S
TOMAHAWK       CLEAR     46  42  84 CALM      29.99F
MEDFORD        CLEAR     51  43  74 S7        29.99S
MERRILL        CLEAR     49  44  81 CALM      30.00S
$$

WIZ029-030-035-036-043>047-180300-
CENTRAL WISCONSIN

CITY           SKY/WX    TMP DP  RH WIND       PRES   REMARKS
WAUSAU         CLEAR     56  46  69 SW7       29.98F
MOSINEE        MOCLDY    52  45  76 S6        30.01F
MARSHFIELD     CLEAR     54  44  69 S5        30.00S
STEVENS POINT  CLEAR     50  45  80 CALM      30.02S
WAUPACA        CLOUDY    55  46  72 CALM      30.02F
WAUTOMA        PTCLDY    49  47  93 CALM      30.04R
WISC RAPIDS    CLEAR     50  48  93 CALM      30.02S
CAMP DOUGLAS   MOCLDY    46  46 100 SE6       30.01S
$$

WIZ011>013-019>022-031-037>040-048>050-180300-
NORTHEAST WISCONSIN

CITY           SKY/WX    TMP DP  RH WIND       PRES   REMARKS
ANTIGO         CLEAR     50  44  80 S7        30.01F
SHAWANO        CLEAR     52  47  84 CALM      30.01S
OCONTO         CLEAR     47  45  92 CALM      30.01S
STURGEON BAY   CLEAR     55  50  83 S6        30.03S
GREEN BAY      CLEAR     51  50  96 S5        30.02S
MANITOWOC      CLEAR     50  49  96 CALM      30.05R
APPLETON       PTCLDY    55  43  62 SW8       30.02S
CLINTONVILLE   CLEAR     52  45  76 CALM      30.01S
OSHKOSH        PTCLDY    53  47  79 S9        30.04R
$$

WIZ032>034-041-042-053>061-180300-
SOUTHWEST WISCONSIN

CITY           SKY/WX    TMP DP  RH WIND       PRES   REMARKS
LA CROSSE      CLEAR     61  48  62 S12       29.99S
SPARTA         CLOUDY    46  44  91 CALM      30.02S
VIROQUA        CLEAR     59  45  59 S6        30.03S
BOSCOBEL       CLEAR     58  45  62 SW5       30.05R
PRAIRIE DU CHI CLEAR     58  43  56 CALM      30.04S
PLATTEVILLE    CLEAR     56  44  65 S3        30.08R
$$

WIZ056-057-062-063-064-067-068-180300-
SOUTH CENTRAL WISCONSIN

CITY           SKY/WX    TMP DP  RH WIND       PRES   REMARKS
REEDSBURG      CLOUDY    58  45  60 S7        30.04S
BARABOO/DELLS  CLOUDY    58  43  56 S7        30.04S
LONE ROCK      CLEAR     57  45  64 CALM      30.05R
MINERAL POINT  CLEAR     59  43  55 S7        30.07S
MADISON        CLEAR     62  42  47 S10G21    30.06R
MIDDLETON      CLEAR     60  44  55 SW6       30.07S
WATERTOWN      CLEAR     56  44  62 S6        30.07R
MONROE         CLEAR     57  39  51 SW15      30.08R
JANESVILLE     CLEAR     55  41  58 SW8       30.09R
$$

WIZ051-052-058>065-066-070>072-180300-
SOUTHEAST WISCONSIN

CITY           SKY/WX    TMP DP  RH WIND       PRES   REMARKS
MILWAUKEE      PTCLDY    62  42  47 SW14      30.09R
WAUKESHA       CLEAR     57  39  51 S3        30.10R
MILWAUKEE/TIMM CLEAR     61  37  41 SW8       30.08S
RACINE         CLEAR     59  43  55 SW10      30.11S
BURLINGTON     CLEAR     53  44  71 SW5       30.10S
KENOSHA        CLEAR     59  41  51 SW8       30.11S
FOND DU LAC    PTCLDY    59  44  57 S6        30.06R
SHEBOYGAN      CLOUDY    53  48  83 S6        30.06R
WEST BEND      PTCLDY    57  41  54 SW6       30.08R
JUNEAU         PTCLDY    57  44  61 S5        30.08R
$$

LSZ147-162-180300-
LAKE SUPERIOR

STATION/POSITION TIME  TEMP    WIND        PRES    WAVE
                       AIR SEA DIR/SP/G            HT/PER
                 (UTC) (F)     (DEG/KT/KT) (MB)    (FT/S)
W MID LAKE BUOY  0150   55 53              1011.6F   0
DEVILS ISLAND    0200   63     180/  9/ 11 1011.4F
SAXON HARBOR     0140   51     200/  4/  6 1011.9F
$$

LMZ867-665-643>646-180300-
LAKE MICHIGAN

STATION/POSITION TIME  TEMP    WIND        PRES    WAVE
                       AIR SEA DIR/SP/G            HT/PER
                 (UTC) (F)     (DEG/KT/KT) (MB)    (FT/S)
S GREEN BAY BUOY 0130   61 58  180/  8/ 10 1016.2R
N MID LAKE BUOY  0150   60 59  190/ 14/ 17 1017.1R   4/ 5
NORTHPORT PIER   0140   57     160/  4/  8 1015.9S
KEWAUNEE LAKESHO 0200   57     190/  7/  8 1016.1
SHEBOYGAN LAKESH 0200   63     200/ 10/ 10 1017.7R
PORT WASHINGTON  0130   59     190/  3/  4 1019.0R
MILWAUKEE LAKESH 0200   63     220/ 12/ 15   N/A
S MID LAKE BUOY  0150   64 61  210/ 16/ 19 1019.6S   3/ 5
KENOSHA   LAKESH 0200   61     200/  8/ 10 1019.6
$$

TC  - TEMPERATURE IN CELSIUS
VSB - VISIBILITY IN STATUTE MILES
WCI - WIND CHILL INDEX
HX  - HEAT INDEX





USA.gov is the U.S. government's official web portal to all federal, state and local government web resources and services.